[[{"header":{"parameterUnit":"m.s-1","parameterCategory":1,"la1":30.2991,"la2":30.254,"lo1":-89.0895,"lo2":-89.0444,"dy":0.0017,"dx":0.0017,"nx":28,"ny":28,"refTime":"2024-09-28T21:00:00:Z","depth":0,"parameterNumber":2,"parameterNumberName":"U-component_of_WINDS"},"data":[0,0,0,0,0,0,0,0,0,0,0,0,0,0,0,0,0,0,0,0,0,0,0,0,0,0,0,0,0,0,0,0,0,0,0,0,0,0,0,0,0,0,0,0,0,0,0,0,0,0,0,0,0,0,0,0,0,0,2.0396,2.0397,0,2.0582,2.0584,2.0586,2.0604,2.0602,2.06,2.0598,2.0794,2.0801,2.0808,0,0,0,0,0,0,0,0,0,0,0,0,0,2.006,2.0066,2.0395,2.0398,2.04,2.0582,2.0584,2.0587,2.0604,2.0602,2.0599,2.0597,2.0792,2.08,2.0809,0,0,0,0,0,0,0,0,0,0,0,0,0,2.0222,2.0068,2.0395,2.043,2.0435,2.0581,2.0585,2.0588,2.0604,2.0601,2.0598,2.0596,2.0789,2.0799,2.081,2.0935,0,0,2.0842,2.0847,0,0,0,0,0,0,0,0,2.0213,2.0234,2.0423,2.0428,2.0434,2.0566,2.0538,2.0704,2.0605,2.054,2.0598,2.0594,2.0721,2.0737,2.0779,2.0944,2.0953,2.0843,2.085,2.0854,2.0857,0,0,0,0,0,0,0,2.0202,2.0226,2.0469,2.0425,2.0432,2.0439,2.0459,2.057,2.0645,2.0546,2.0547,2.0569,2.0724,2.0769,2.0784,2.0956,2.0843,2.0853,2.0859,2.0863,2.1237,2.124,0,0,0,0,0,0,2.0183,2.0217,2.0463,2.0475,2.0314,2.0447,2.0469,2.0527,2.0644,2.0659,2.0571,2.0569,2.0752,2.0771,2.0791,2.0947,2.0854,2.0864,2.087,2.1233,2.1238,2.1241,0,0,0,0,0,0,2.0176,2.0205,2.0456,2.0347,2.0379,2.0456,2.0521,2.0532,2.0577,2.0663,2.0678,2.0603,2.075,2.0776,2.09,2.0954,2.0869,2.0879,2.1229,2.1235,2.124,2.1259,0,0,0,0,0,0,2.0166,2.0202,2.0248,2.0347,2.0385,2.0559,2.0524,2.0538,2.0595,2.0594,2.0697,2.0711,2.075,2.0884,2.091,2.0967,2.0887,2.1225,2.1232,2.1238,2.1253,2.1264,2.1273,0,0,0,0,0,2.0154,2.0247,2.0251,2.028,2.0444,2.0562,2.0584,2.0625,2.0599,2.0648,2.0704,2.0708,2.0944,2.0896,2.0926,2.0987,2.1221,2.123,2.1237,2.1249,2.1262,2.1273,0,0,0,0,0,0,2.0154,2.026,2.0266,2.0393,2.0469,2.0565,2.0627,2.0637,2.0723,2.0718,2.0768,2.0791,2.0913,2.0963,2.0908,2.1116,2.108,2.1094,2.1079,2.1092,2.1101,2.1087,2.0896,0,0,0,0,0,2.0168,2.0253,2.0343,2.0447,2.0484,2.0549,2.0602,2.0628,2.0708,2.0741,2.0806,2.0885,2.0978,2.1038,2.1127,2.1261,2.1285,2.1318,2.1328,2.1335,2.1347,2.1424,2.144,2.1268,2.1268,2.1267,0,0,2.0199,2.0268,2.0319,2.0449,2.051,2.0599,2.0576,2.0671,2.0738,2.0756,2.0876,2.0927,2.102,2.115,2.121,2.1195,2.14,2.1345,2.1351,2.1359,2.1434,2.145,2.1465,2.1273,2.1272,2.1271,0,0,2.0302,2.0362,2.0456,2.0518,2.0611,2.0654,2.0677,2.0773,2.0807,2.0928,2.0944,2.1026,2.1183,2.1249,2.1303,2.1434,2.1442,2.1462,2.1513,2.1587,2.1601,2.1613,2.1661,2.1678,2.1474,2.1474,2.1474,0,2.033,2.0463,2.0504,2.0599,2.0656,2.0675,2.0772,2.0831,2.0949,2.099,2.097,2.117,2.1233,2.138,2.1412,2.1455,2.1484,2.145,2.1595,2.1608,2.162,2.1667,2.1685,2.1476,2.1475,2.1475,2.1475,0,2.0493,2.0585,2.0651,2.0763,2.0828,2.0924,2.0981,2.1043,2.1064,2.111,2.1235,2.1312,2.1419,2.1456,2.1477,2.1607,2.1594,2.1584,2.155,2.1638,2.1683,2.1701,2.1478,2.1478,2.1477,2.1477,0,0,2.0599,2.0734,2.0757,2.081,2.0915,2.0988,2.1086,2.1189,2.1242,2.1323,2.1408,2.1542,2.1534,2.1596,2.1625,2.1691,2.1792,2.1674,2.1677,2.1694,2.1942,2.1949,2.1968,2.1798,2.1801,2.1804,2.1934,0,2.0714,2.0887,2.0928,2.1077,2.1164,2.1185,2.1271,2.1346,2.1392,2.1475,2.1527,2.1622,2.1603,2.1641,2.1707,2.1765,2.1842,2.1756,2.1879,2.1883,2.1855,2.1992,2.1999,2.2118,2.1952,2.1955,2.1957,0,2.0871,2.0955,2.1112,2.1208,2.1246,2.1322,2.1421,2.1499,2.1586,2.1616,2.1685,2.1709,2.1815,2.1774,2.1922,2.1863,2.1916,2.1953,2.1959,2.1972,2.1925,2.201,2.2157,2.2175,2.1985,2.1983,2.1981,0,2.0934,2.1087,2.1201,2.1245,2.1359,2.1413,2.1463,2.1547,2.1607,2.1695,2.1735,2.1834,2.1888,2.1966,2.2017,2.1982,2.2162,2.2125,2.2191,2.219,2.2228,2.2225,2.2386,2.2261,2.2261,2.226,2.226,0,2.1059,2.1154,2.1231,2.1302,2.1411,2.1458,2.1566,2.1617,2.1692,2.1775,2.1799,2.1877,2.1939,2.2026,2.2067,2.2185,2.2209,2.2238,2.2247,2.2236,2.2232,2.2271,2.2265,2.2265,2.2264,2.2263,2.2262,0,2.1147,2.1202,2.1328,2.1426,2.1453,2.153,2.1615,2.1685,2.1733,2.1838,2.1865,2.1941,2.2045,2.2103,2.2234,2.2262,2.2394,2.2399,2.2363,2.2368,2.2431,2.2425,2.2624,2.2654,2.2507,2.2509,2.251,0,2.1223,2.1297,2.1403,2.1459,2.151,2.1601,2.1662,2.1714,2.1777,2.1883,2.1942,2.2047,2.2134,2.23,2.2368,2.2469,2.2478,2.2541,2.2493,2.248,2.2481,2.2476,2.2485,2.2549,2.255,2.2551,2.2552,0,2.1352,2.1376,2.1463,2.156,2.1632,2.1712,2.1791,2.1836,2.1901,2.1972,2.2077,2.2145,2.2279,2.2384,2.2491,2.2546,2.2561,2.2567,2.2588,2.2577,2.2554,2.2569,2.2387,2.2562,2.2561,2.256,2.256,2.2559,2.1438,2.1505,2.1591,2.1687,2.1752,2.1826,2.1897,2.1954,2.2043,2.2154,2.218,2.2292,2.2381,2.2526,2.2584,2.2675,2.2664,2.2693,2.2701,2.2708,2.2711,2.2539,2.2695,2.2694,2.2694,2.2694,2.2694,0,2.1569,2.1626,2.1714,2.1823,2.19,2.1906,2.1994,2.2059,2.2157,2.2237,2.2322,2.2446,2.2548,2.2625,2.2731,2.2789,2.2799,2.2815,2.2812,2.2825,2.2714,2.2686,2.2806,2.2806,2.2806,2.2806,2.2806,2.2806,2.1647,2.1762,2.1797,2.1946,2.2002,2.2111,2.2161,2.2231,2.2295,2.2431,2.2516,2.2565,2.2645,2.2758,2.2853,2.2874,2.2912,2.2928,2.2949,2.2844,2.2832,2.2821,2.2795,2.2936,2.2936,2.3053,2.3054,2.3055]},{"header":{"parameterUnit":"m.s-1","parameterCategory":1,"la1":30.2991,"la2":30.254,"lo1":-89.0895,"lo2":-89.0444,"dy":0.0017,"dx":0.0017,"nx":28,"ny":28,"refTime":"2024-09-28T21:00:00:Z","depth":0,"parameterNumber":3,"parameterNumberName":"V-component_of_WINDS"},"data":[0,0,0,0,0,0,0,0,0,0,0,0,0,0,0,0,0,0,0,0,0,0,0,0,0,0,0,0,0,0,0,0,0,0,0,0,0,0,0,0,0,0,0,0,0,0,0,0,0,0,0,0,0,0,0,0,0,0,2.2572,2.2574,0,2.2817,2.282,2.2823,2.288,2.2878,2.2877,2.2875,2.3131,2.3139,2.3147,0,0,0,0,0,0,0,0,0,0,0,0,0,2.2157,2.2164,2.2571,2.2574,2.2577,2.2817,2.282,2.2824,2.288,2.2878,2.2876,2.2874,2.3128,2.3138,2.3148,0,0,0,0,0,0,0,0,0,0,0,0,0,2.2363,2.2166,2.2571,2.2634,2.2643,2.2816,2.282,2.2825,2.2881,2.2878,2.2876,2.2873,2.3125,2.3137,2.315,2.3279,0,0,2.3188,2.3194,0,0,0,0,0,0,0,0,2.2351,2.2378,2.2622,2.263,2.264,2.2815,2.2768,2.2977,2.2881,2.279,2.2875,2.2872,2.3028,2.3049,2.3101,2.3291,2.3302,2.3189,2.3197,2.3202,2.3206,0,0,0,0,0,0,0,2.2337,2.2368,2.2669,2.2626,2.2636,2.2653,2.2679,2.2808,2.2921,2.2798,2.2803,2.2831,2.3033,2.3088,2.3107,2.3305,2.3189,2.32,2.3208,2.3213,2.3618,2.3621,0,0,0,0,0,0,2.2311,2.2356,2.2661,2.2676,2.2486,2.2662,2.2692,2.2762,2.292,2.2941,2.2833,2.2833,2.3068,2.3092,2.3116,2.328,2.3202,2.3214,2.3221,2.3614,2.3618,2.3622,0,0,0,0,0,0,2.2302,2.2337,2.2651,2.2517,2.2559,2.2672,2.275,2.2768,2.2823,2.2946,2.2967,2.2869,2.3067,2.3098,2.3238,2.329,2.322,2.3231,2.3611,2.3616,2.362,2.3607,0,0,0,0,0,0,2.2289,2.2334,2.2382,2.2518,2.2565,2.2767,2.2753,2.2774,2.2845,2.2847,2.2985,2.3005,2.3067,2.3219,2.3251,2.3306,2.3241,2.3607,2.3613,2.3619,2.3604,2.3611,2.3617,0,0,0,0,0,2.2274,2.2369,2.2384,2.2421,2.2628,2.277,2.2797,2.2866,2.2848,2.29,2.2979,2.3001,2.3279,2.3233,2.3269,2.3329,2.3604,2.3611,2.3618,2.3601,2.361,2.3617,0,0,0,0,0,0,2.2237,2.2388,2.2407,2.2548,2.2646,2.2779,2.2846,2.2873,2.2978,2.2976,2.3058,2.3088,2.3224,2.329,2.3237,2.3464,2.3441,2.3456,2.3415,2.3425,2.3432,2.3414,2.3251,0,0,0,0,0,2.2245,2.2346,2.2473,2.2586,2.2634,2.2731,2.2795,2.284,2.2945,2.2987,2.3076,2.3179,2.329,2.3361,2.3469,2.3613,2.3646,2.3672,2.3679,2.3684,2.3697,2.3781,2.3795,2.3645,2.3645,2.3645,0,0,2.2264,2.2358,2.2417,2.2581,2.2662,2.2767,2.2765,2.2876,2.2955,2.3004,2.3142,2.3211,2.3331,2.3474,2.3542,2.3534,2.3745,2.3693,2.3696,2.3706,2.379,2.3804,2.3816,2.365,2.3649,2.3649,0,0,2.2351,2.2431,2.2535,2.2616,2.2739,2.2804,2.2828,2.2959,2.3007,2.3146,2.3186,2.3282,2.347,2.3555,2.3623,2.3745,2.377,2.3778,2.3814,2.3895,2.3907,2.3918,2.3964,2.3979,2.3789,2.3789,2.3789,0,2.2358,2.2516,2.2585,2.2695,2.2767,2.2815,2.2922,2.2998,2.315,2.32,2.3188,2.3428,2.3512,2.3677,2.3707,2.3759,2.3793,2.3763,2.3899,2.3911,2.3923,2.3967,2.3984,2.3789,2.3789,2.3789,2.3789,0,2.252,2.2629,2.2699,2.2844,2.2924,2.3031,2.3119,2.3192,2.323,2.3297,2.344,2.3543,2.3674,2.3716,2.3754,2.3888,2.388,2.3883,2.3862,2.3936,2.398,2.3997,2.379,2.379,2.379,2.379,0,0,2.259,2.2773,2.2798,2.2866,2.3006,2.3093,2.3204,2.3331,2.3394,2.3497,2.3595,2.3754,2.3758,2.3835,2.3884,2.3955,2.4048,2.395,2.3954,2.3966,2.4205,2.4204,2.4222,2.4065,2.4069,2.4072,2.4196,0,2.2696,2.2894,2.2961,2.3127,2.323,2.3279,2.3376,2.3474,2.354,2.3639,2.3712,2.3824,2.382,2.3868,2.394,2.4021,2.4097,2.4013,2.4159,2.4163,2.4129,2.4245,2.4243,2.4355,2.4213,2.4216,2.4218,0,2.2845,2.2951,2.3127,2.3256,2.3302,2.3388,2.3512,2.3605,2.3718,2.3761,2.3848,2.3892,2.4013,2.3983,2.4153,2.4094,2.4158,2.4207,2.4213,2.4231,2.4196,2.4267,2.4392,2.441,2.4245,2.4243,2.4241,0,2.2881,2.3068,2.3198,2.3254,2.3408,2.3468,2.3535,2.3645,2.3718,2.3827,2.3877,2.3998,2.4065,2.416,2.4236,2.4207,2.44,2.4376,2.4442,2.444,2.4481,2.4478,2.462,2.4519,2.4518,2.4518,2.4518,0,2.2993,2.31,2.3217,2.3297,2.3418,2.3495,2.3614,2.3684,2.3783,2.3879,2.3929,2.4019,2.4113,2.4216,2.4277,2.441,2.4439,2.4479,2.4495,2.4476,2.4471,2.452,2.4515,2.4523,2.4522,2.4521,2.452,0,2.3055,2.3137,2.3282,2.3416,2.3452,2.3536,2.3652,2.3733,2.3801,2.3923,2.3956,2.4064,2.4188,2.4273,2.4432,2.4474,2.4618,2.4631,2.458,2.4588,2.4649,2.4643,2.4829,2.4859,2.4735,2.4736,2.4737,0,2.3121,2.3204,2.3347,2.3415,2.3482,2.359,2.3666,2.3745,2.3822,2.3959,2.4024,2.4152,2.4258,2.4455,2.4548,2.4672,2.4689,2.4746,2.4708,2.4688,2.4694,2.4688,2.4699,2.4752,2.4753,2.4754,2.4755,0,2.3232,2.3269,2.3375,2.3496,2.3585,2.3684,2.3785,2.3838,2.3936,2.402,2.4147,2.423,2.4393,2.452,2.4652,2.4724,2.4758,2.4766,2.4788,2.4771,2.4739,2.476,2.4598,2.4762,2.4761,2.476,2.476,2.476,2.33,2.3377,2.349,2.3608,2.3691,2.3784,2.3868,2.3947,2.4054,2.4192,2.4233,2.4367,2.4481,2.4662,2.4736,2.4843,2.4838,2.4869,2.4878,2.4885,2.4886,2.472,2.4867,2.4867,2.4867,2.4867,2.4867,0,2.3415,2.3491,2.3598,2.3736,2.383,2.3851,2.3964,2.4041,2.4157,2.426,2.4364,2.4512,2.4636,2.474,2.4869,2.4935,2.4954,2.4966,2.4963,2.498,2.4881,2.4851,2.4949,2.4949,2.4949,2.4949,2.4949,2.4949,2.3486,2.3619,2.367,2.3845,2.3921,2.4051,2.4114,2.4201,2.4284,2.4447,2.455,2.4616,2.4721,2.4859,2.4974,2.5002,2.5049,2.5058,2.509,2.4996,2.4987,2.4978,2.4949,2.5067,2.5067,2.518,2.5181,2.5182]}]]